Content
SEND FEEDBACK

Daily
Averages
Monthly
Summary
Philippines

ANGELES CITY, PHILIPPINES


Home > Asia > Philippines
Elevation: 490 feet     Latitude: 15 11N     Longitude: 120 33E

WEATHER
 
SELECT A DAY
Number of Records: 93,737;   Date Range: 2/13/97 - 8/30/14
 
SHARE

PRINT THIS DATA

[ ← Previous Day ]
WEATHER ALMANAC - FEBRUARY 4, 2013
[ Next Day → ]
[ °C ]   °F
Weather ElementAverageHighLow
Temperature76.8 °F87.8 °F (2:00 pm)68 °F (5:00 am)
Dewpoint64.5 °F66.2 °F (2:00 am)62.6 °F (10:00 am)
Humidity67.8 %88 % (5:00 am)45 % (12:00 pm)
Barometer30.02 in30.06 in (8:00 am)29.95 in (3:00 pm)
Wind Speed7 mph13.8 mph (4:00 pm)
Wind Gust18.4 mph (11:00 pm)
Weather ElementAverage
Visibility6.2 mi
Wind DirectionSSW (186.5 °)

Weather ElementTotal
Precipitation---
Cooling Degree Days12.9 (Base 65)
Growing Degree Days27.9 (Base 50)
Averaged from 20 records on February 4, 2013
WEATHER CONDITIONS BREAKOUT
WIND DIRECTION BREAKOUT
WEATHER BY HOUR - FEBRUARY 4, 2013
[ °C ]   °F
Local TimeTemperatureDewpointHumidityBarometerVisibilityWind DirectionWind SpeedGust SpeedPrecipitationEventsConditions
1:00 AM69.8 °F64.4 °F83 %30.04 in6.2 miWNW (300°)6.9 mphScattered Clouds
2:00 AM71.6 °F66.2 °F83 %30.04 in6.2 miNW (320°)5.8 mphMostly Cloudy
3:00 AM71.6 °F66.2 °F83 %30.01 in6.2 miWNW (300°)8.1 mphMostly Cloudy
4:00 AM69.8 °F64.4 °F83 %30.01 in6.2 miWest (280°)5.8 mphMostly Cloudy
5:00 AM68.0 °F64.4 °F88 %30.04 in6.2 miWNW (290°)8.1 mphMostly Cloudy
6:00 AM69.8 °F64.4 °F83 %30.04 in6.2 miWNW (300°)6.9 mphMostly Cloudy
7:00 AM68.0 °F64.4 °F88 %30.04 in6.2 miWNW (290°)5.8 mphMostly Cloudy
8:00 AM73.4 °F66.2 °F78 %30.06 in6.2 miWNW (290°)4.6 mphScattered Clouds
10:00 AM84.2 °F62.6 °F48 %30.06 in6.2 miNE (50°)9.2 mphScattered Clouds
11:00 AM84.2 °F64.4 °F51 %30.04 in6.2 miENE (70°)10.4 mphScattered Clouds
12:00 PM86.0 °F62.6 °F45 %30.01 in6.2 miENE (60°)10.4 mphScattered Clouds
1:00 PM86.0 °F62.6 °F45 %29.98 in6.2 miNE (50°)5.8 mphScattered Clouds
2:00 PM87.8 °F64.4 °F46 %29.98 in6.2 miEast (90°)10.4 mphPartly Cloudy
3:00 PM87.8 °F64.4 °F46 %29.95 in6.2 miEast (90°)10.4 mphScattered Clouds
4:00 PM86.0 °F64.4 °F48 %29.95 in6.2 miNE (50°)13.8 mphScattered Clouds
7:00 PM77.0 °F66.2 °F69 %30.01 in6.2 miNorth (350°)2.3 mphMostly Cloudy
8:00 PM77.0 °F64.4 °F65 %30.04 in6.2 miWSW (240°)4.6 mphMostly Cloudy
9:00 PM73.4 °F64.4 °F73 %30.04 in6.2 miNW (310°)5.8 mphMostly Cloudy
10:00 PM71.6 °F64.4 °F78 %30.04 in6.2 miVariable3.5 mphMostly Cloudy
11:00 PM73.4 °F64.4 °F73 %30.04 in6.2 miVariable2.3 mph18.4 mphScattered Clouds
Hourly data recorded from RPLC, located miles away from Angeles City, Philippines







STORIES FROM OUR PARTNERS